Weather History for Charlottesville, VA

Change the Weather History Date:

Friday, February 22, 2013

  Actual Average Record
Temperature  
Mean Temperature 34 °F 40 °F  
Max Temperature 37 °F 50 °F 74 °F (1930)
Min Temperature 30 °F 29 °F 6 °F (1963)
Degree Days  
Heating Degree Days 31 26  
Month to date heating degree days 629 604  
Since 1 July heating degree days 2913 3264  
Cooling Degree Days 0 0  
Month to date cooling degree days 0 0  
Year to date cooling degree days 0 0  
Moisture  
Dew Point 21 °F    
Average Humidity 62    
Maximum Humidity 75    
Minimum Humidity 49    
Precipitation  
Precipitation T in 0.09 in 1.89 in (2003)
Month to date precipitation 0.41 2.06  
Year to date precipitation 5.46 4.83  
Sea Level Pressure  
Sea Level Pressure 30.28 in    
Wind  
Wind Speed 3 mph (SE)    
Max Wind Speed 12 mph    
Max Gust Speed 14 mph    
Visibility 9 miles    
Events Rain , Snow    
T = Trace of Precipitation, MM = Missing Value Source: NWS Daily Summary

Daily Weather History Graph

Daily Weather History Graph

Search for Another Location

Airport:

Trip Planner

Search our weather history database for the weather conditions in past years. The results will help you decide how hot, cold, wet, or windy it might be!

Date:

Astronomy

Feb. 22, 2013 Rise Set
Actual Time 6:54 AM EST 6:00 PM EST
Civil Twilight 6:28 AM EST 6:26 PM EST
Nautical Twilight 5:57 AM EST 6:57 PM EST
Astronomical Twilight 5:27 AM EST 7:28 PM EST
Moon 3:11 PM EST (2/22) 4:36 AM EST (2/22)
Length of Visible Light 11h 58m
Length of Day
11h 05m
Waxing Gibbous, 90% of the Moon is Illuminated
Feb 22
Waxing Gibbous
Feb 25
Full
Mar 4
Last Quarter
Mar 11
New
Mar 19
First Quarter

Hourly Weather History & Observations

Time (EST) Temp. Windchill Dew Point Humidity Pressure Visibility Wind Dir Wind Speed Gust Speed Precip Events Conditions
12:53 AM 30.9 °F - 15.1 °F 52% 30.32 in 10.0 mi Calm Calm - N/A   Clear
1:53 AM 30.9 °F - 16.0 °F 54% 30.36 in 10.0 mi Calm Calm - N/A   Clear
2:53 AM 30.9 °F - 16.0 °F 54% 30.35 in 10.0 mi Calm Calm - N/A   Scattered Clouds
3:53 AM 30.9 °F - 18.0 °F 59% 30.35 in 10.0 mi Calm Calm - N/A   Mostly Cloudy
4:53 AM 32.0 °F 28.7 °F 16.0 °F 52% 30.31 in 10.0 mi ENE 3.5 mph - N/A   Overcast
5:53 AM 32.0 °F - 16.0 °F 52% 30.34 in 10.0 mi Calm Calm - N/A   Overcast
6:53 AM 30.9 °F 27.5 °F 16.0 °F 54% 30.34 in 10.0 mi ENE 3.5 mph - 0.00 in Rain Light Freezing Rain
7:53 AM 30.9 °F 22.8 °F 19.0 °F 61% 30.31 in 8.0 mi NE 9.2 mph - 0.00 in Snow Light Snow
8:53 AM 30.9 °F 25.2 °F 19.0 °F 61% 30.33 in 9.0 mi ENE 5.8 mph - 0.00 in Snow Light Snow
9:53 AM 30.9 °F - 18.0 °F 59% 30.33 in 7.0 mi Calm Calm - 0.00 in   Overcast
10:53 AM 30.9 °F 27.5 °F 21.0 °F 67% 30.32 in 7.0 mi ESE 3.5 mph - 0.00 in   Overcast
11:04 AM 30.2 °F 26.7 °F 21.2 °F 69% 30.31 in 7.0 mi South 3.5 mph - N/A   Overcast
11:53 AM 32.0 °F 28.7 °F 21.0 °F 64% 30.31 in 7.0 mi Variable 3.5 mph - N/A   Overcast
12:53 PM 34.0 °F 31.0 °F 21.0 °F 59% 30.29 in 10.0 mi SSE 3.5 mph - 0.00 in   Overcast
1:53 PM 34.0 °F 31.0 °F 21.0 °F 59% 30.27 in 10.0 mi South 3.5 mph - N/A   Overcast
2:53 PM 35.1 °F 32.2 °F 21.0 °F 57% 30.25 in 10.0 mi ESE 3.5 mph - N/A   Overcast
3:53 PM 36.0 °F - 21.0 °F 55% 30.24 in 10.0 mi Calm Calm - N/A   Overcast
4:53 PM 37.0 °F 31.6 °F 23.0 °F 57% 30.24 in 10.0 mi South 6.9 mph - N/A   Overcast
5:53 PM 35.1 °F 30.1 °F 24.1 °F 64% 30.23 in 10.0 mi South 5.8 mph - N/A   Overcast
6:53 PM 35.1 °F 32.2 °F 24.1 °F 64% 30.23 in 10.0 mi South 3.5 mph - N/A   Overcast
7:53 PM 35.1 °F 32.2 °F 25.0 °F 67% 30.23 in 10.0 mi South 3.5 mph - N/A   Overcast
8:53 PM 35.1 °F 31.0 °F 25.0 °F 67% 30.22 in 10.0 mi ESE 4.6 mph - N/A   Overcast
9:53 PM 34.0 °F 31.0 °F 25.0 °F 70% 30.22 in 10.0 mi SSE 3.5 mph - N/A   Overcast
10:04 PM 33.8 °F 30.8 °F 24.8 °F 70% 30.20 in 10.0 mi SSE 3.5 mph - N/A   Overcast
10:53 PM 34.0 °F 29.8 °F 26.1 °F 73% 30.21 in 10.0 mi SSE 4.6 mph - N/A   Overcast
11:53 PM 34.0 °F - 26.1 °F 73% 30.19 in 10.0 mi Calm Calm - N/A   Overcast